Weather History for Alexandria, LA

Change the Weather History Date:

Sunday, December 9, 2007

  Actual Average Record
Temperature  
Mean Temperature 74 °F 51 °F  
Max Temperature 83 °F 61 °F 83 °F (2007)
Min Temperature 65 °F 41 °F 18 °F (2006)
Degree Days  
Heating Degree Days 0 15  
Month to date heating degree days 63 124  
Since 1 July heating degree days 317 449  
Cooling Degree Days 8    
Growing Degree Days 23 (Base 50)    
Moisture  
Dew Point 66 °F    
Average Humidity 80    
Maximum Humidity 94    
Minimum Humidity 56    
Precipitation  
Precipitation 0.01 in 0.26 in 3.45 in (1923)
Month to date precipitation 0.12 2.30  
Year to date precipitation 44.74 52.10  
Snow  
Snow 0.00 in - 0.00 in ()
Month to date snowfall 0.0  
Since 1 July snowfall 0.0  
Snow Depth 0.00 in    
Sea Level Pressure  
Sea Level Pressure 30.17 in    
Wind  
Wind Speed 7 mph (SE)    
Max Wind Speed 13 mph    
Max Gust Speed 22 mph    
Visibility 7 miles    
Events Rain    
T = Trace of Precipitation, MM = Missing Value Source: NWS Daily Summary

Daily Weather History Graph

Daily Weather History Graph

Search for Another Location

Airport:

Trip Planner

Search our weather history database for the weather conditions in past years. The results will help you decide how hot, cold, wet, or windy it might be!

Date:

Astronomy

Dec. 09, 2007 Rise Set
Actual Time 6:57 AM CST 5:07 PM CST
Civil Twilight 6:30 AM CST 5:34 PM CST
Nautical Twilight 6:00 AM CST 6:04 PM CST
Astronomical Twilight 5:31 AM CST 6:33 PM CST
Moon 7:04 AM CST (12/9) 4:55 PM CST (12/9)
Length of Visible Light 11h 03m
Length of Day
10h 10m
New Moon, 0% of the Moon is Illuminated
Dec 9
New Moon
Dec 17
First Quarter
Dec 23
Full
Dec 31
Last Quarter
Jan 8
New

Hourly Weather History & Observations

Time (CST) Temp. Heat Index Dew Point Humidity Pressure Visibility Wind Dir Wind Speed Gust Speed Precip Events Conditions
12:53 AM 70.0 °F - 66.9 °F 90% 30.13 in 6.0 mi SE 10.4 mph - N/A   Overcast
1:53 AM 71.1 °F - 68.0 °F 90% 30.13 in 5.0 mi SE 6.9 mph - N/A   Overcast
2:53 AM 71.1 °F - 68.0 °F 90% 30.14 in 5.0 mi SE 4.6 mph - N/A   Overcast
3:11 AM 71.6 °F - 68.0 °F 88% 30.13 in 5.0 mi SE 4.6 mph - N/A   Overcast
3:18 AM 71.6 °F - 68.0 °F 88% 30.13 in 5.0 mi SE 3.5 mph - N/A   Overcast
3:53 AM 71.1 °F - 68.0 °F 90% 30.15 in 5.0 mi ESE 4.6 mph - 0.00 in   Overcast
4:53 AM 69.1 °F - 66.0 °F 90% 30.15 in 3.0 mi SE 4.6 mph - N/A   Overcast
5:53 AM 68.0 °F - 66.0 °F 93% 30.17 in 6.0 mi SE 3.5 mph - N/A   Scattered Clouds
5:57 AM 66.2 °F - 64.4 °F 94% 30.16 in 1.5 mi SE 3.5 mph - N/A   Scattered Clouds
5:59 AM 66.2 °F - 64.4 °F 94% 30.17 in 0.8 mi SE 3.5 mph - N/A   Mist
6:09 AM 66.2 °F - 64.4 °F 94% 30.17 in 1.5 mi ESE 5.8 mph - N/A   Scattered Clouds
6:25 AM 68.0 °F - 64.4 °F 88% 30.17 in 3.0 mi SE 3.5 mph - N/A   Partly Cloudy
6:53 AM 66.9 °F - 64.9 °F 93% 30.19 in 3.0 mi ESE 4.6 mph - N/A   Clear
7:11 AM 69.8 °F - 66.2 °F 88% 30.17 in 2.5 mi SE 6.9 mph - 0.00 in Rain Light Rain
7:46 AM 69.8 °F - 66.2 °F 88% 30.19 in 3.0 mi SE 8.1 mph - 0.01 in Rain Light Rain
7:53 AM 71.1 °F - 68.0 °F 90% 30.19 in 3.0 mi ESE 6.9 mph - 0.01 in   Partly Cloudy
8:53 AM 73.0 °F - 69.1 °F 87% 30.20 in 6.0 mi SSE 10.4 mph 21.9 mph N/A   Mostly Cloudy
9:53 AM 75.0 °F - 68.0 °F 79% 30.22 in 9.0 mi SSE 9.2 mph - N/A   Overcast
10:02 AM 75.2 °F - 68.0 °F 78% 30.21 in 9.0 mi SSE 12.7 mph - N/A   Overcast
10:53 AM 78.1 °F - 66.9 °F 68% 30.22 in 10.0 mi South 6.9 mph - N/A   Mostly Cloudy
11:25 AM 80.6 °F 82.7 °F 66.2 °F 61% 30.20 in 10.0 mi South 10.4 mph 16.1 mph N/A   Mostly Cloudy
11:53 AM 80.1 °F 82.3 °F 66.9 °F 64% 30.19 in 10.0 mi South 8.1 mph - N/A   Overcast
12:00 PM 80.6 °F 82.7 °F 66.2 °F 61% 30.18 in 10.0 mi SE 10.4 mph - N/A   Overcast
12:53 PM 82.0 °F 83.8 °F 64.9 °F 56% 30.17 in 10.0 mi SE 9.2 mph - N/A   Mostly Cloudy
1:53 PM 81.0 °F 82.7 °F 64.9 °F 58% 30.15 in 10.0 mi SSE 9.2 mph 19.6 mph 0.00 in   Mostly Cloudy
2:53 PM 79.0 °F - 64.9 °F 62% 30.14 in 10.0 mi SE 9.2 mph - N/A   Mostly Cloudy
3:53 PM 81.0 °F 82.7 °F 64.9 °F 58% 30.14 in 10.0 mi SSE 10.4 mph - 0.00 in   Mostly Cloudy
4:53 PM 75.9 °F - 64.0 °F 67% 30.14 in 10.0 mi SSE 5.8 mph - N/A   Scattered Clouds
5:53 PM 75.0 °F - 63.0 °F 66% 30.14 in 10.0 mi South 3.5 mph - N/A   Partly Cloudy
6:53 PM 71.1 °F - 64.0 °F 78% 30.16 in 10.0 mi Calm Calm - N/A   Clear
7:53 PM 68.0 °F - 62.1 °F 81% 30.17 in 10.0 mi ESE 3.5 mph - N/A   Clear
8:53 PM 69.1 °F - 63.0 °F 81% 30.18 in 10.0 mi SSE 4.6 mph - N/A   Clear
9:53 PM 68.0 °F - 63.0 °F 84% 30.19 in 9.0 mi SE 4.6 mph - N/A   Clear
10:53 PM 64.9 °F - 62.1 °F 90% 30.19 in 8.0 mi SE 4.6 mph - N/A   Clear
11:53 PM 66.0 °F - 63.0 °F 90% 30.19 in 6.0 mi ESE 3.5 mph - N/A   Partly Cloudy